Time,TemperatureF,DewpointF,PressureIn,WindDirection,WindDirectionDegrees,WindSpeedMPH,WindSpeedGustMPH,Humidity,HourlyPrecipIn,Conditions,Clouds,dailyrainin,SoftwareType,DateUTC
2013-01-12 00:02:00,42.0,41.0,29.41,North,-999,-999.0,-999.0,98,-99.99,,,-99.99,,2013-01-12 06:02:00,
2013-01-12 00:12:00,42.0,41.0,29.41,North,-999,-999.0,-999.0,98,-99.99,,,-99.99,,2013-01-12 06:12:00,
2013-01-12 00:22:00,42.0,42.0,29.39,North,-999,-999.0,-999.0,99,-99.99,,,-99.99,,2013-01-12 06:22:00,
2013-01-12 00:32:00,42.0,42.0,29.39,North,-999,-999.0,-999.0,99,-99.99,,,-99.99,,2013-01-12 06:32:00,
2013-01-12 00:42:00,42.0,42.0,29.39,North,-999,-999.0,-999.0,99,-99.99,,,-99.99,,2013-01-12 06:42:00,
2013-01-12 00:53:00,42.0,42.0,29.39,North,-999,-999.0,-999.0,99,-99.99,,,-99.99,,2013-01-12 06:53:00,
2013-01-12 01:02:00,42.0,41.0,29.39,North,-999,-999.0,-999.0,98,-99.99,,,-99.99,,2013-01-12 07:02:00,
2013-01-12 01:12:00,42.0,41.0,29.39,North,-999,-999.0,-999.0,98,-99.99,,,-99.99,,2013-01-12 07:12:00,
2013-01-12 01:22:00,42.0,41.0,29.39,North,-999,-999.0,-999.0,98,-99.99,,,-99.99,,2013-01-12 07:22:00,
2013-01-12 01:32:00,44.0,43.0,29.39,North,-999,-999.0,-999.0,97,-99.99,,,-99.99,,2013-01-12 07:32:00,
2013-01-12 01:42:00,44.0,43.0,29.39,North,-999,-999.0,-999.0,97,-99.99,,,-99.99,,2013-01-12 07:42:00,
2013-01-12 01:52:00,44.0,43.0,29.39,North,-999,-999.0,-999.0,96,-99.99,,,-99.99,,2013-01-12 07:52:00,
2013-01-12 02:02:00,44.0,42.0,29.39,North,-999,-999.0,-999.0,94,-99.99,,,-99.99,,2013-01-12 08:02:00,
2013-01-12 02:12:00,44.0,42.0,29.39,North,-999,-999.0,-999.0,94,-99.99,,,-99.99,,2013-01-12 08:12:00,
2013-01-12 02:22:00,44.0,42.0,29.41,North,-999,-999.0,-999.0,92,-99.99,,,-99.99,,2013-01-12 08:22:00,
2013-01-12 02:32:00,46.0,43.0,29.41,North,-999,-999.0,-999.0,90,-99.99,,,-99.99,,2013-01-12 08:32:00,
2013-01-12 02:42:00,46.0,43.0,29.41,North,-999,-999.0,-999.0,90,-99.99,,,-99.99,,2013-01-12 08:42:00,
2013-01-12 02:53:00,47.0,43.0,29.41,North,-999,-999.0,-999.0,87,-99.99,,,-99.99,,2013-01-12 08:53:00,
2013-01-12 03:02:00,47.0,43.0,29.41,North,-999,-999.0,-999.0,86,-99.99,,,-99.99,,2013-01-12 09:02:00,
2013-01-12 03:12:00,47.0,43.0,29.41,North,-999,-999.0,-999.0,86,-99.99,,,-99.99,,2013-01-12 09:12:00,
2013-01-12 03:22:00,47.0,41.0,29.44,North,-999,-999.0,-999.0,81,-99.99,,,-99.99,,2013-01-12 09:22:00,
2013-01-12 03:32:00,46.0,41.0,29.44,North,-999,-999.0,-999.0,83,-99.99,,,-99.99,,2013-01-12 09:32:00,
2013-01-12 03:42:00,46.0,41.0,29.44,North,-999,-999.0,-999.0,83,-99.99,,,-99.99,,2013-01-12 09:42:00,
2013-01-12 03:53:00,45.0,40.0,29.44,North,-999,-999.0,-999.0,83,-99.99,,,-99.99,,2013-01-12 09:53:00,
2013-01-12 04:02:00,44.0,39.0,29.48,North,-999,-999.0,-999.0,82,-99.99,,,-99.99,,2013-01-12 10:02:00,
2013-01-12 04:12:00,44.0,39.0,29.48,North,-999,-999.0,-999.0,82,-99.99,,,-99.99,,2013-01-12 10:12:00,
2013-01-12 04:22:00,44.0,38.0,29.48,North,-999,-999.0,-999.0,78,-99.99,,,-99.99,,2013-01-12 10:22:00,
2013-01-12 04:32:00,43.0,35.0,29.51,North,-999,-999.0,-999.0,73,-99.99,,,-99.99,,2013-01-12 10:32:00,
2013-01-12 04:42:00,43.0,35.0,29.51,North,-999,-999.0,-999.0,73,-99.99,,,-99.99,,2013-01-12 10:42:00,
2013-01-12 04:52:00,41.0,33.0,29.54,North,-999,-999.0,-999.0,74,-99.99,,,-99.99,,2013-01-12 10:52:00,
2013-01-12 05:02:00,39.0,31.0,29.54,North,-999,-999.0,-999.0,72,-99.99,,,-99.99,,2013-01-12 11:02:00,
2013-01-12 05:12:00,39.0,31.0,29.54,North,-999,-999.0,-999.0,72,-99.99,,,-99.99,,2013-01-12 11:12:00,
2013-01-12 05:22:00,38.0,30.0,29.57,North,-999,-999.0,-999.0,74,-99.99,,,-99.99,,2013-01-12 11:22:00,
2013-01-12 05:32:00,37.0,29.0,29.57,North,-999,-999.0,-999.0,73,-99.99,,,-99.99,,2013-01-12 11:32:00,
2013-01-12 05:42:00,37.0,29.0,29.57,North,-999,-999.0,-999.0,73,-99.99,,,-99.99,,2013-01-12 11:42:00,
2013-01-12 05:53:00,36.0,27.0,29.59,North,-999,-999.0,-999.0,70,-99.99,,,-99.99,,2013-01-12 11:53:00,
2013-01-12 06:02:00,34.0,25.0,29.59,North,-999,-999.0,-999.0,70,-99.99,,,-99.99,,2013-01-12 12:02:00,
2013-01-12 06:12:00,34.0,25.0,29.59,North,-999,-999.0,-999.0,70,-99.99,,,-99.99,,2013-01-12 12:12:00,
2013-01-12 06:22:00,34.0,26.0,29.63,North,-999,-999.0,-999.0,71,-99.99,,,-99.99,,2013-01-12 12:22:00,
2013-01-12 06:32:00,33.0,25.0,29.66,North,-999,-999.0,-999.0,73,-99.99,,,-99.99,,2013-01-12 12:32:00,
2013-01-12 06:42:00,33.0,25.0,29.66,North,-999,-999.0,-999.0,73,-99.99,,,-99.99,,2013-01-12 12:42:00,
2013-01-12 06:53:00,32.0,24.0,29.66,North,-999,-999.0,-999.0,73,-99.99,,,-99.99,,2013-01-12 12:53:00,
2013-01-12 07:02:00,31.0,23.0,29.66,North,-999,-999.0,-999.0,73,-99.99,,,-99.99,,2013-01-12 13:02:00,
2013-01-12 07:12:00,31.0,23.0,29.66,North,-999,-999.0,-999.0,73,-99.99,,,-99.99,,2013-01-12 13:12:00,
2013-01-12 07:22:00,31.0,22.0,29.69,North,-999,-999.0,-999.0,69,-99.99,,,-99.99,,2013-01-12 13:22:00,
2013-01-12 07:33:00,30.0,21.0,29.72,North,-999,-999.0,-999.0,68,-99.99,,,-99.99,,2013-01-12 13:33:00,
2013-01-12 07:42:00,30.0,21.0,29.72,North,-999,-999.0,-999.0,68,-99.99,,,-99.99,,2013-01-12 13:42:00,
2013-01-12 07:53:00,30.0,21.0,29.72,North,-999,-999.0,-999.0,70,-99.99,,,-99.99,,2013-01-12 13:53:00,
2013-01-12 08:02:00,29.0,18.0,29.72,North,-999,-999.0,-999.0,64,-99.99,,,-99.99,,2013-01-12 14:02:00,
2013-01-12 08:12:00,29.0,18.0,29.72,North,-999,-999.0,-999.0,64,-99.99,,,-99.99,,2013-01-12 14:12:00,
2013-01-12 08:22:00,29.0,19.0,29.75,North,-999,-999.0,-999.0,65,-99.99,,,-99.99,,2013-01-12 14:22:00,
2013-01-12 08:33:00,27.0,15.0,29.78,North,-999,-999.0,-999.0,60,-99.99,,,-99.99,,2013-01-12 14:33:00,
2013-01-12 08:43:00,27.0,15.0,29.78,North,-999,-999.0,-999.0,60,-99.99,,,-99.99,,2013-01-12 14:43:00,
2013-01-12 08:53:00,26.0,14.0,29.78,North,-999,-999.0,-999.0,60,-99.99,,,-99.99,,2013-01-12 14:53:00,
2013-01-12 09:03:00,26.0,14.0,29.78,North,-999,-999.0,-999.0,59,-99.99,,,-99.99,,2013-01-12 15:03:00,
2013-01-12 09:12:00,26.0,14.0,29.78,North,-999,-999.0,-999.0,59,-99.99,,,-99.99,,2013-01-12 15:12:00,
2013-01-12 09:22:00,26.0,14.0,29.78,North,-999,-999.0,-999.0,59,-99.99,,,-99.99,,2013-01-12 15:22:00,
2013-01-12 09:33:00,26.0,14.0,29.81,North,-999,-999.0,-999.0,59,-99.99,,,-99.99,,2013-01-12 15:33:00,
2013-01-12 09:43:00,26.0,14.0,29.81,North,-999,-999.0,-999.0,59,-99.99,,,-99.99,,2013-01-12 15:43:00,
2013-01-12 09:53:00,26.0,13.0,29.81,North,-999,-999.0,-999.0,58,-99.99,,,-99.99,,2013-01-12 15:53:00,
2013-01-12 10:03:00,25.0,12.0,29.81,North,-999,-999.0,-999.0,57,-99.99,,,-99.99,,2013-01-12 16:03:00,
2013-01-12 10:12:00,25.0,12.0,29.81,North,-999,-999.0,-999.0,57,-99.99,,,-99.99,,2013-01-12 16:12:00,
2013-01-12 10:23:00,25.0,12.0,29.84,North,-999,-999.0,-999.0,56,-99.99,,,-99.99,,2013-01-12 16:23:00,
2013-01-12 10:33:00,25.0,11.0,29.84,North,-999,-999.0,-999.0,54,-99.99,,,-99.99,,2013-01-12 16:33:00,
2013-01-12 10:42:00,25.0,11.0,29.84,North,-999,-999.0,-999.0,54,-99.99,,,-99.99,,2013-01-12 16:42:00,
2013-01-12 10:53:00,25.0,11.0,29.84,North,-999,-999.0,-999.0,55,-99.99,,,-99.99,,2013-01-12 16:53:00,
2013-01-12 11:02:00,24.0,10.0,29.84,North,-999,-999.0,-999.0,54,-99.99,,,-99.99,,2013-01-12 17:02:00,
2013-01-12 11:12:00,24.0,10.0,29.84,North,-999,-999.0,-999.0,54,-99.99,,,-99.99,,2013-01-12 17:12:00,
2013-01-12 11:22:00,25.0,11.0,29.87,North,-999,-999.0,-999.0,55,-99.99,,,-99.99,,2013-01-12 17:22:00,
2013-01-12 11:33:00,25.0,11.0,29.87,North,-999,-999.0,-999.0,54,-99.99,,,-99.99,,2013-01-12 17:33:00,
2013-01-12 11:42:00,25.0,11.0,29.87,North,-999,-999.0,-999.0,54,-99.99,,,-99.99,,2013-01-12 17:42:00,
2013-01-12 11:53:00,25.0,11.0,29.87,North,-999,-999.0,-999.0,54,-99.99,,,-99.99,,2013-01-12 17:53:00,
2013-01-12 12:03:00,25.0,10.0,29.87,North,-999,-999.0,-999.0,52,-99.99,,,-99.99,,2013-01-12 18:03:00,
2013-01-12 12:12:00,25.0,10.0,29.87,North,-999,-999.0,-999.0,52,-99.99,,,-99.99,,2013-01-12 18:12:00,
2013-01-12 12:23:00,25.0,10.0,29.87,North,-999,-999.0,-999.0,53,-99.99,,,-99.99,,2013-01-12 18:23:00,
2013-01-12 12:33:00,24.0,9.0,29.87,North,-999,-999.0,-999.0,52,-99.99,,,-99.99,,2013-01-12 18:33:00,
2013-01-12 12:42:00,24.0,9.0,29.87,North,-999,-999.0,-999.0,52,-99.99,,,-99.99,,2013-01-12 18:42:00,
2013-01-12 12:53:00,24.0,9.0,29.87,North,-999,-999.0,-999.0,51,-99.99,,,-99.99,,2013-01-12 18:53:00,
2013-01-12 13:03:00,24.0,9.0,29.87,North,-999,-999.0,-999.0,52,-99.99,,,-99.99,,2013-01-12 19:03:00,
2013-01-12 13:12:00,24.0,9.0,29.87,North,-999,-999.0,-999.0,52,-99.99,,,-99.99,,2013-01-12 19:12:00,
2013-01-12 13:23:00,24.0,9.0,29.87,North,-999,-999.0,-999.0,52,-99.99,,,-99.99,,2013-01-12 19:23:00,
2013-01-12 13:33:00,24.0,9.0,29.87,North,-999,-999.0,-999.0,52,-99.99,,,-99.99,,2013-01-12 19:33:00,
2013-01-12 13:43:00,24.0,9.0,29.87,North,-999,-999.0,-999.0,52,-99.99,,,-99.99,,2013-01-12 19:43:00,
2013-01-12 15:22:00,23.0,9.0,29.93,North,-999,-999.0,-999.0,54,-99.99,,,-99.99,,2013-01-12 21:22:00,
2013-01-12 15:33:00,23.0,9.0,29.93,North,-999,-999.0,-999.0,54,-99.99,,,-99.99,,2013-01-12 21:33:00,
2013-01-12 15:43:00,23.0,9.0,29.93,North,-999,-999.0,-999.0,54,-99.99,,,-99.99,,2013-01-12 21:43:00,
2013-01-12 15:52:00,23.0,9.0,29.93,North,-999,-999.0,-999.0,54,-99.99,,,-99.99,,2013-01-12 21:52:00,
2013-01-12 16:03:00,22.0,8.0,29.93,North,-999,-999.0,-999.0,54,-99.99,,,-99.99,,2013-01-12 22:03:00,
2013-01-12 16:12:00,22.0,8.0,29.93,North,-999,-999.0,-999.0,54,-99.99,,,-99.99,,2013-01-12 22:12:00,
2013-01-12 16:22:00,22.0,8.0,29.93,North,-999,-999.0,-999.0,54,-99.99,,,-99.99,,2013-01-12 22:22:00,
2013-01-12 16:33:00,22.0,8.0,29.93,North,-999,-999.0,-999.0,55,-99.99,,,-99.99,,2013-01-12 22:33:00,
2013-01-12 16:43:00,22.0,8.0,29.93,North,-999,-999.0,-999.0,55,-99.99,,,-99.99,,2013-01-12 22:43:00,
2013-01-12 16:52:00,21.0,7.0,29.96,North,-999,-999.0,-999.0,55,-99.99,,,-99.99,,2013-01-12 22:52:00,
2013-01-12 17:03:00,21.0,7.0,29.96,North,-999,-999.0,-999.0,55,-99.99,,,-99.99,,2013-01-12 23:03:00,
2013-01-12 17:12:00,21.0,7.0,29.96,North,-999,-999.0,-999.0,55,-99.99,,,-99.99,,2013-01-12 23:12:00,
2013-01-12 17:22:00,21.0,7.0,29.96,North,-999,-999.0,-999.0,55,-99.99,,,-99.99,,2013-01-12 23:22:00,
2013-01-12 17:33:00,20.0,6.0,29.96,North,-999,-999.0,-999.0,55,-99.99,,,-99.99,,2013-01-12 23:33:00,
2013-01-12 17:42:00,20.0,6.0,29.96,North,-999,-999.0,-999.0,55,-99.99,,,-99.99,,2013-01-12 23:42:00,
2013-01-12 17:53:00,20.0,6.0,29.96,North,-999,-999.0,-999.0,55,-99.99,,,-99.99,,2013-01-12 23:53:00,
2013-01-12 18:03:00,20.0,7.0,29.96,North,-999,-999.0,-999.0,56,-99.99,,,-99.99,,2013-01-13 00:03:00,
2013-01-12 18:12:00,20.0,7.0,29.96,North,-999,-999.0,-999.0,56,-99.99,,,-99.99,,2013-01-13 00:12:00,
2013-01-12 18:23:00,20.0,8.0,29.96,North,-999,-999.0,-999.0,58,-99.99,,,-99.99,,2013-01-13 00:23:00,
2013-01-12 18:33:00,20.0,7.0,29.96,North,-999,-999.0,-999.0,57,-99.99,,,-99.99,,2013-01-13 00:33:00,
2013-01-12 18:43:00,20.0,7.0,29.96,North,-999,-999.0,-999.0,57,-99.99,,,-99.99,,2013-01-13 00:43:00,
2013-01-12 18:53:00,20.0,7.0,29.96,North,-999,-999.0,-999.0,57,-99.99,,,-99.99,,2013-01-13 00:53:00,
2013-01-12 19:02:00,20.0,7.0,29.96,North,-999,-999.0,-999.0,57,-99.99,,,-99.99,,2013-01-13 01:02:00,
2013-01-12 19:12:00,20.0,7.0,29.96,North,-999,-999.0,-999.0,57,-99.99,,,-99.99,,2013-01-13 01:12:00,
2013-01-12 19:22:00,19.0,6.0,29.96,North,-999,-999.0,-999.0,57,-99.99,,,-99.99,,2013-01-13 01:22:00,
2013-01-12 19:32:00,19.0,6.0,29.96,North,-999,-999.0,-999.0,55,-99.99,,,-99.99,,2013-01-13 01:32:00,
2013-01-12 19:43:00,19.0,6.0,29.96,North,-999,-999.0,-999.0,55,-99.99,,,-99.99,,2013-01-13 01:43:00,
2013-01-12 19:53:00,19.0,6.0,29.99,North,-999,-999.0,-999.0,55,-99.99,,,-99.99,,2013-01-13 01:53:00,
2013-01-12 20:02:00,19.0,6.0,29.99,North,-999,-999.0,-999.0,55,-99.99,,,-99.99,,2013-01-13 02:02:00,
2013-01-12 20:12:00,19.0,6.0,29.99,North,-999,-999.0,-999.0,55,-99.99,,,-99.99,,2013-01-13 02:12:00,
2013-01-12 20:22:00,18.0,5.0,29.96,North,-999,-999.0,-999.0,56,-99.99,,,-99.99,,2013-01-13 02:22:00,
2013-01-12 20:32:00,18.0,5.0,30.02,North,-999,-999.0,-999.0,57,-99.99,,,-99.99,,2013-01-13 02:32:00,
2013-01-12 20:42:00,18.0,5.0,30.02,North,-999,-999.0,-999.0,57,-99.99,,,-99.99,,2013-01-13 02:42:00,
2013-01-12 20:53:00,18.0,5.0,30.02,North,-999,-999.0,-999.0,55,-99.99,,,-99.99,,2013-01-13 02:53:00,
2013-01-12 21:02:00,17.0,4.0,30.02,North,-999,-999.0,-999.0,55,-99.99,,,-99.99,,2013-01-13 03:02:00,
2013-01-12 21:12:00,17.0,4.0,30.02,North,-999,-999.0,-999.0,55,-99.99,,,-99.99,,2013-01-13 03:12:00,
2013-01-12 21:22:00,17.0,4.0,30.02,North,-999,-999.0,-999.0,56,-99.99,,,-99.99,,2013-01-13 03:22:00,
2013-01-12 21:33:00,17.0,4.0,29.99,North,-999,-999.0,-999.0,56,-99.99,,,-99.99,,2013-01-13 03:33:00,
2013-01-12 21:42:00,17.0,4.0,29.99,North,-999,-999.0,-999.0,56,-99.99,,,-99.99,,2013-01-13 03:42:00,
2013-01-12 21:53:00,17.0,4.0,30.02,North,-999,-999.0,-999.0,57,-99.99,,,-99.99,,2013-01-13 03:53:00,
2013-01-12 22:02:00,17.0,4.0,29.99,North,-999,-999.0,-999.0,56,-99.99,,,-99.99,,2013-01-13 04:02:00,
2013-01-12 22:12:00,17.0,4.0,29.99,North,-999,-999.0,-999.0,56,-99.99,,,-99.99,,2013-01-13 04:12:00,
2013-01-12 22:22:00,16.0,3.0,30.02,North,-999,-999.0,-999.0,55,-99.99,,,-99.99,,2013-01-13 04:22:00,
2013-01-12 22:32:00,16.0,3.0,29.99,North,-999,-999.0,-999.0,56,-99.99,,,-99.99,,2013-01-13 04:32:00,
2013-01-12 22:42:00,16.0,3.0,29.99,North,-999,-999.0,-999.0,56,-99.99,,,-99.99,,2013-01-13 04:42:00,
2013-01-12 22:53:00,16.0,3.0,30.02,North,-999,-999.0,-999.0,56,-99.99,,,-99.99,,2013-01-13 04:53:00,
2013-01-12 23:03:00,16.0,3.0,29.99,North,-999,-999.0,-999.0,55,-99.99,,,-99.99,,2013-01-13 05:03:00,
2013-01-12 23:12:00,16.0,3.0,29.99,North,-999,-999.0,-999.0,55,-99.99,,,-99.99,,2013-01-13 05:12:00,
2013-01-12 23:22:00,16.0,3.0,29.99,North,-999,-999.0,-999.0,56,-99.99,,,-99.99,,2013-01-13 05:22:00,
2013-01-12 23:32:00,15.0,3.0,29.99,North,-999,-999.0,-999.0,57,-99.99,,,-99.99,,2013-01-13 05:32:00,
2013-01-12 23:42:00,15.0,3.0,29.99,North,-999,-999.0,-999.0,57,-99.99,,,-99.99,,2013-01-13 05:42:00,
2013-01-12 23:53:00,15.0,3.0,29.99,North,-999,-999.0,-999.0,57,-99.99,,,-99.99,,2013-01-13 05:53:00,